Regional Weather Roundup
Issued by NWS

Home | Current Version | Previous Version | Text Only | Print | Product List | Glossary On
Versions: 1 2 3 4 5 6 7 8 9 10 11 12 13 14 15 16 17 18 19 20 21 22 23 24 25 26 27 28 29 30 31 32 33 34 35 36 37 38 39 40 41 42 43 44 45 46 47 48 49 50
762
ASUS43 KDMX 252101
RWRIA

WEATHER ROUNDUP FOR IOWA
NATIONAL WEATHER SERVICE DES MOINES IA
400 PM CDT SAT MAR 25 2017

NOTE: "FAIR" INDICATES FEW OR NO CLOUDS BELOW 12,000 FEET WITH NO
SIGNIFICANT WEATHER AND/OR OBSTRUCTIONS TO VISIBILITY.

* - THESE STATIONS ARE NOT NWS STATIONS...THUS NOT UNDER NWS
QUALITY CONTROL.  THEY ALSO DO NOT REPORT WEATHER SUCH
AS PRECIPITATION OR FOG.

IAZ001>003-012>014-020>022-031>034-043>046-252200-
   NORTHWEST IOWA

CITY           SKY/WX    TMP DP  RH WIND       PRES   REMARKS
CARROLL *      MIX PCPN  41  41 100 NE15      29.93F
CHEROKEE *     CLOUDY    39  38  97 NE9G17    29.97F FOG     WCI  33
LE MARS *      CLOUDY    41  37  87 NE13      29.99F
ORANGE CITY *  CLOUDY    39  37  93 E14G21    29.97F WCI  31
SHELDON *      CLOUDY    39  39 100 NE18      29.96F WCI  30
SPENCER        CLOUDY    39  37  92 NE20      29.98F WCI  29
STORM LAKE *   CLOUDY    37  37 100 NE17G24   29.96F FOG     WCI  28
$$

IAZ055>058-069>071-079>083-090>094-252200-
   SOUTHWEST IOWA

CITY           SKY/WX    TMP DP  RH WIND       PRES   REMARKS
ATLANTIC *     CLOUDY    41  39  93 NE14      29.91S
AUDUBON *      CLOUDY    41  37  87 NE10G17   29.93S
CLARINDA *     CLOUDY    45  41  87 NE10      29.91F
COUNCIL BLFS *   N/A     43  43 100 NE17      29.91F
CRESTON *      CLOUDY    41  41 100 NE18      29.89S
HARLAN  *      CLOUDY    41  41 100 NE17G23   29.95F
LAMONI         CLOUDY    45  43  93 NE13      29.86S
RED OAK *      CLOUDY    43  41  93 N10       29.91S
SHENANDOAH *   CLOUDY    43  41  93 NE12      29.91F
$$

IAZ047>049-059>061-072>074-084-252200-
   CENTRAL IOWA

CITY           SKY/WX    TMP DP  RH WIND       PRES   REMARKS
AMES           CLOUDY    42  41  96 NE12      29.93R
ANKENY *         N/A     43  39  87 NE13      29.92F
BOONE *        CLOUDY    41  41 100 NE18      29.92R
CHARITON *     CLOUDY    43  43 100 NE13      29.87S
DES MOINES     CLOUDY    43  40  89 NE12      29.91S
MARSHALLTOWN   LGT RAIN  42  40  92 NE16      29.92S
NEWTON *       CLOUDY    41  41 100 NE13      29.90S FOG
PELLA *        CLOUDY    43  42  96 E8        29.91S
PERRY *        CLOUDY    42  40  92 NE13      29.92F
$$

IAZ004>006-015-016-023>025-035-036-252200-
   NORTH CENTRAL IOWA

CITY           SKY/WX    TMP DP  RH WIND       PRES   REMARKS
ALGONA *       LGT RAIN  39  39 100 NE14G21   29.98S WCI  31
CLARION *      CLOUDY    39  39 100 NE16G22   29.96S WCI  30
ESTHERVILLE    CLOUDY    37  37 100 NE17      29.99F FOG     WCI  27
FORT DODGE *   CLOUDY    39  36  87 NE13      29.96F WCI  32
MASON CITY     LGT RAIN  38  36  92 NE17      29.99F WCI  28
FOREST CITY *  DRIZZLE   37  36  93 NE13      29.99S WCI  29
WEBSTER CITY * CLOUDY    41  39  93 NE15G22   29.92F
IOWA FALLS *   CLOUDY    41  39  95 NE15G23   29.94F
$$

IAZ007>011-017>019-026>030-037>042-050>054-066-252200-
   NORTHEAST IOWA

CITY           SKY/WX    TMP DP  RH WIND       PRES   REMARKS
CEDAR RAPIDS   CLOUDY    43  43 100 E15       29.90S FOG
CLINTON *      CLOUDY    48  47  96 E17       29.92S
DECORAH *      LGT RAIN  37  37 100 NE15      29.98F WCI  28
DUBUQUE        CLOUDY    41  40  96 NE16      29.95R FOG
MONTICELLO *   CLOUDY    43  41  93 NE9       29.93S FOG
OELWEIN *      LGT RAIN  41  41 100 NE20      29.94F
WATERLOO       CLOUDY    41  39  93 NE18      29.94F FOG
$$

IAZ064-065-067-068-078-252200-
   EAST CENTRAL IOWA

CITY           SKY/WX    TMP DP  RH WIND       PRES   REMARKS
DAVENPORT      CLOUDY    51  49  92 E16       29.90F
IOWA CITY      CLOUDY    46  44  93 NE13      29.91S
MUSCATINE *    CLOUDY    52  48  87 NE12      29.88F
QUAD CITIES    CLOUDY    54  50  86 NE13      29.88F
$$

IAZ062-063-075>077-085>089-095>099-252200-
   SOUTHEAST IOWA

CITY           SKY/WX    TMP DP  RH WIND       PRES   REMARKS
BURLINGTON     CLOUDY    58  55  90 NE9       29.83F
FAIRFIELD *    CLOUDY    46  46 100 NE7       29.87S FOG
FORT MADISON * CLOUDY    57  57 100 N5        29.84F
KEOKUK *       CLOUDY    55  54  94 N5        29.82F
OSKALOOSA *    CLOUDY    44  43  97 E10       29.88F
OTTUMWA        CLOUDY    46  46 100 NE10      29.87F
WASHINGTON *   FOG       48  48 100 E13       29.89S VSB 3/4
$$

ABBREVIATIONS USED IN REMARKS
   TC - TEMPERATURES IN CELSIUS
  WCI - WIND CHILL INDEX
   HX - HEAT INDEX
  VSB - VISIBILITY
$$





USA.gov is the U.S. government's official web portal to all federal, state and local government web resources and services.